Weather Roundup
Issued by NWS

Home | Current Version | Previous Version | Text Only | Print | Product List | Glossary On
Versions: 1 2 3 4 5 6 7 8 9 10 11 12 13 14 15 16 17 18 19 20 21 22 23 24 25 26 27 28 29 30 31 32 33 34 35 36 37 38 39 40 41 42 43 44 45 46 47 48 49 50
000
NZUS93 KARX 302310
HRRWXR

CURRENT HOURLY OBSERVATIONS ACROSS
MUCH OF THE UPPER MISSISSIPPI VALLEY
NATIONAL WEATHER SERVICE LA CROSSE WI
600 PM CDT SUN AUG 30 2015


...SOUTHEAST MINNESOTA...


CITY           SKY/WX    TMP DP  RH WIND       PRES   REMARKS
ROCHESTER      MOSUNNY   71  64  78 S12       30.00S
ROCHESTER/MAYO FAIR      73  64  74 S8        29.99F
WINONA         SUNNY     73  63  68 S3        29.98F
AUSTIN         NOT AVBL
ALBERT LEA     SUNNY     73  66  78 S10       29.98F
DODGE CENTER   SUNNY     72  64  78 S9        29.99S
PRESTON        PTSUNNY   71  63  76 S12       30.01F
OWATONNA       SUNNY     75  64  69 S10G16    29.97S
FARIBAULT      SUNNY     75  66  73 S8G16     29.96S
$$

...ELSEWHERE IN MINNESOTA...


CITY           SKY/WX    TMP DP  RH WIND       PRES   REMARKS
MINNEAPOLIS    MOSUNNY   80  64  58 S13       29.92F
INTNL FALLS    MOSUNNY   81  70  69 S5        29.78F
DULUTH         SUNNY     78  66  66 S12       29.88F
RED WING       SUNNY     79  64  61 S7        29.94F
REDWOOD FALLS  SUNNY     79  64  60 S10       29.89F
MANKATO        SUNNY     75  66  73 S12       29.94F
WORTHINGTON    SUNNY     73  64  73 S13       29.94F
FAIRMONT       SUNNY     73  63  68 S12       29.95F
$$

...SOUTHWEST WISCONSIN...


CITY           SKY/WX    TMP DP  RH WIND       PRES   REMARKS
LA CROSSE      MOSUNNY   75  65  70 S8        29.98F
PRAIRIE DU CHI MOSUNNY   74  62  67 S3        30.01S
BOSCOBEL       MOSUNNY   75  65  70 SW5       30.01F
LONE ROCK      SUNNY     75  64  68 SW6       30.01F
PLATTEVILLE    SUNNY     73  66  81 SW5       30.03S
FORT MC COY    SUNNY     73  62  66 S6        30.01S
CAMP DOUGLAS   SUNNY     74  71  90 SW7       29.99F
VIROQUA          N/A     71  64  77 S6        30.02F
WIS DELLS      SUNNY     74  63  67 SW6       30.02S
$$

...ELSEWHERE IN WISCONSIN...


CITY           SKY/WX    TMP DP  RH WIND       PRES   REMARKS
MILWAUKEE      CLOUDY    68  62  81 SE6       30.02S
MADISON        PTSUNNY   73  62  68 SW5       30.01F
GREEN BAY      SUNNY     73  64  73 SW7       29.99F
EAU CLAIRE     SUNNY     75  63  66 S12       29.96S
BLACK RVR FLS  FAIR      74  63  66 SW6       29.98F
MEDFORD        SUNNY     72  64  75 S7        29.99F
WAUSAU         SUNNY     76  63  64 SW12      29.98S
WIS RAPIDS     SUNNY     75  63  66 S9        30.00F
MARSHFIELD     SUNNY     76  62  62 SW9       29.99F
RICE LAKE      SUNNY     74  65  71 S7        29.96F
$$

...NORTHEAST IOWA...


CITY           SKY/WX    TMP DP  RH WIND       PRES   REMARKS
DECORAH        CLOUDY    72  64  78 VRB5G14   30.01F
MASON CITY     CLOUDY    73  66  78 S12       30.01F
CHARLES CITY   CLOUDY    72  66  83 S9        30.02F
OELWEIN        CLOUDY   N/A N/A N/A MISG        N/A
$$

...ELSEWHERE IN IOWA...


CITY           SKY/WX    TMP DP  RH WIND       PRES   REMARKS
DES MOINES     MOSUNNY   78  67  68 S6        29.99F
IOWA CITY      SUNNY     76  66  71 W3        30.02F
FORT DODGE     SUNNY     73  64  73 S8        29.99F
$$

...NORTHERN ILLINOIS...


CITY           SKY/WX    TMP DP  RH WIND       PRES   REMARKS
CHICAGO-OHARE  MOSUNNY   74  65  73 E5        30.02S
CHICAGO-MIDWAY MOSUNNY   75  64  68 E9        30.02S
MOLINE         SUNNY     80  65  59 CALM      30.01F
ROCKFORD       MOSUNNY   75  62  64 CALM      30.04S
PEORIA         SUNNY     83  67  58 N5        30.01S
$$

NOTE: "FAIR" INDICATES FEW OR NO CLOUDS BELOW 12,000 FEET WITH NO
SIGNIFICANT WEATHER AND/OR OBSTRUCTIONS TO VISIBILITY. WIND
SPEEDS ARE IN MILES-PER-HOUR.



USA.gov is the U.S. government's official web portal to all federal, state and local government web resources and services.